Time,TemperatureF,DewpointF,PressureIn,WindDirection,WindDirectionDegrees,WindSpeedMPH,WindSpeedGustMPH,Humidity,HourlyPrecipIn,Conditions,Clouds,dailyrainin,SoftwareType,DateUTC
2013-08-31 00:01:00,75.9,72.0,29.91,South,180,7.0,13.0,88,0.00,,,0.00,Rainwise IP-100,2013-08-31 04:01:00,
2013-08-31 00:06:00,75.9,71.0,29.91,SSW,202,6.1,12.0,87,0.00,,,0.00,Rainwise IP-100,2013-08-31 04:06:00,
2013-08-31 00:11:00,75.9,71.0,29.91,South,180,8.9,13.0,87,0.00,,,0.00,Rainwise IP-100,2013-08-31 04:11:00,
2013-08-31 00:16:00,75.9,71.0,29.91,South,180,9.1,13.0,87,0.00,,,0.00,Rainwise IP-100,2013-08-31 04:16:00,
2013-08-31 00:21:00,75.9,71.0,29.91,South,180,7.5,13.0,87,0.00,,,0.00,Rainwise IP-100,2013-08-31 04:21:00,
2013-08-31 00:26:00,75.9,71.0,29.92,SSW,202,10.5,11.0,87,0.00,,,0.00,Rainwise IP-100,2013-08-31 04:26:00,
2013-08-31 00:31:00,75.9,71.0,29.91,SSW,202,5.1,12.0,87,0.00,,,0.00,Rainwise IP-100,2013-08-31 04:31:00,
2013-08-31 00:36:00,75.8,71.0,29.90,South,180,7.0,11.0,87,0.00,,,0.00,Rainwise IP-100,2013-08-31 04:36:00,
2013-08-31 00:42:00,75.7,71.0,29.90,South,180,6.5,11.0,87,0.00,,,0.00,Rainwise IP-100,2013-08-31 04:42:00,
2013-08-31 00:47:00,75.7,71.0,29.90,SSW,202,8.9,12.0,87,0.00,,,0.00,Rainwise IP-100,2013-08-31 04:47:00,
2013-08-31 00:52:00,75.6,71.0,29.90,SSW,202,4.9,11.0,87,0.00,,,0.00,Rainwise IP-100,2013-08-31 04:52:00,
2013-08-31 00:57:00,75.6,71.0,29.90,SSW,202,7.7,10.0,87,0.00,,,0.00,Rainwise IP-100,2013-08-31 04:57:00,
2013-08-31 01:02:00,75.5,71.0,29.90,SW,225,4.7,14.0,87,0.00,,,0.00,Rainwise IP-100,2013-08-31 05:02:00,
2013-08-31 01:07:00,75.5,71.0,29.90,SSW,202,4.0,10.0,88,0.00,,,0.00,Rainwise IP-100,2013-08-31 05:07:00,
2013-08-31 01:12:00,75.4,71.0,29.90,WSW,247,1.2,8.0,88,0.00,,,0.00,Rainwise IP-100,2013-08-31 05:12:00,
2013-08-31 01:18:00,75.4,71.0,29.90,WSW,247,4.9,6.0,88,0.00,,,0.00,Rainwise IP-100,2013-08-31 05:18:00,
2013-08-31 01:23:00,75.3,71.0,29.90,SSW,202,6.1,7.0,87,0.00,,,0.00,Rainwise IP-100,2013-08-31 05:23:00,
2013-08-31 01:28:00,75.2,71.0,29.90,SW,225,3.7,7.0,87,0.00,,,0.00,Rainwise IP-100,2013-08-31 05:28:00,
2013-08-31 01:33:00,75.2,71.0,29.90,SSW,202,2.1,6.0,87,0.00,,,0.00,Rainwise IP-100,2013-08-31 05:33:00,
2013-08-31 01:38:00,75.2,71.0,29.90,WSW,247,4.4,6.0,87,0.00,,,0.00,Rainwise IP-100,2013-08-31 05:38:00,
2013-08-31 01:43:00,75.2,71.0,29.90,WSW,247,9.3,9.3,87,0.00,,,0.00,Rainwise IP-100,2013-08-31 05:43:00,
2013-08-31 01:48:00,75.4,71.0,29.90,WSW,247,3.5,10.0,86,0.00,,,0.00,Rainwise IP-100,2013-08-31 05:48:00,
2013-08-31 01:53:00,75.5,71.0,29.90,WSW,247,5.6,9.0,85,0.00,,,0.00,Rainwise IP-100,2013-08-31 05:53:00,
2013-08-31 01:59:00,75.6,71.0,29.90,WSW,247,3.3,9.0,85,0.00,,,0.00,Rainwise IP-100,2013-08-31 05:59:00,
2013-08-31 02:04:00,75.5,71.0,29.90,SW,225,4.7,7.0,85,0.00,,,0.00,Rainwise IP-100,2013-08-31 06:04:00,
2013-08-31 02:09:00,75.5,71.0,29.90,SSW,202,4.4,11.0,85,0.00,,,0.00,Rainwise IP-100,2013-08-31 06:09:00,
2013-08-31 02:14:00,75.6,71.0,29.90,South,180,5.6,6.0,85,0.00,,,0.00,Rainwise IP-100,2013-08-31 06:14:00,
2013-08-31 02:19:00,75.5,71.0,29.90,SW,225,6.5,15.0,85,0.00,,,0.00,Rainwise IP-100,2013-08-31 06:19:00,
2013-08-31 02:24:00,75.5,71.0,29.90,WSW,247,3.3,11.0,85,0.00,,,0.00,Rainwise IP-100,2013-08-31 06:24:00,
2013-08-31 02:29:00,75.5,71.0,29.90,SSW,202,8.9,8.9,85,0.00,,,0.00,Rainwise IP-100,2013-08-31 06:29:00,
2013-08-31 02:35:00,75.3,70.0,29.90,South,180,4.2,12.0,85,0.00,,,0.00,Rainwise IP-100,2013-08-31 06:35:00,
2013-08-31 02:40:00,75.2,70.0,29.89,SW,225,4.4,7.0,85,0.00,,,0.00,Rainwise IP-100,2013-08-31 06:40:00,
2013-08-31 02:45:00,75.2,71.0,29.90,WSW,247,3.3,7.0,86,0.00,,,0.00,Rainwise IP-100,2013-08-31 06:45:00,
2013-08-31 02:50:00,75.1,71.0,29.90,WSW,247,5.8,7.0,86,0.00,,,0.00,Rainwise IP-100,2013-08-31 06:50:00,
2013-08-31 02:55:00,75.1,71.0,29.90,WNW,292,1.9,13.0,86,0.00,,,0.00,Rainwise IP-100,2013-08-31 06:55:00,
2013-08-31 03:00:00,75.1,71.0,29.90,SW,225,5.4,10.0,86,0.00,,,0.00,Rainwise IP-100,2013-08-31 07:00:00,
2013-08-31 03:05:00,75.2,71.0,29.90,SSW,202,9.1,9.1,86,0.00,,,0.00,Rainwise IP-100,2013-08-31 07:05:00,
2013-08-31 03:10:00,75.1,71.0,29.89,SSW,202,4.0,10.0,86,0.00,,,0.00,Rainwise IP-100,2013-08-31 07:10:00,
2013-08-31 03:16:00,75.0,71.0,29.88,SSW,202,7.0,9.0,86,0.00,,,0.00,Rainwise IP-100,2013-08-31 07:16:00,
2013-08-31 03:21:00,75.0,71.0,29.89,WSW,247,1.6,9.0,86,0.00,,,0.00,Rainwise IP-100,2013-08-31 07:21:00,
2013-08-31 03:26:00,74.9,71.0,29.89,SW,225,7.5,9.0,86,0.00,,,0.00,Rainwise IP-100,2013-08-31 07:26:00,
2013-08-31 03:31:00,74.9,71.0,29.89,WSW,247,7.7,10.0,86,0.00,,,0.00,Rainwise IP-100,2013-08-31 07:31:00,
2013-08-31 03:36:00,74.8,70.0,29.89,SSW,202,7.0,12.0,86,0.00,,,0.00,Rainwise IP-100,2013-08-31 07:36:00,
2013-08-31 03:41:00,74.8,71.0,29.88,South,180,9.6,13.0,87,0.00,,,0.00,Rainwise IP-100,2013-08-31 07:41:00,
2013-08-31 03:46:00,74.8,71.0,29.88,WNW,292,1.2,12.0,87,0.00,,,0.00,Rainwise IP-100,2013-08-31 07:46:00,
2013-08-31 03:52:00,74.9,71.0,29.89,WSW,247,10.0,11.0,87,0.00,,,0.00,Rainwise IP-100,2013-08-31 07:52:00,
2013-08-31 03:57:00,74.9,71.0,29.89,WNW,292,8.4,13.0,86,0.00,,,0.00,Rainwise IP-100,2013-08-31 07:57:00,
2013-08-31 04:02:00,75.0,71.0,29.89,West,270,4.2,10.0,86,0.00,,,0.00,Rainwise IP-100,2013-08-31 08:02:00,
2013-08-31 04:07:00,75.0,71.0,29.89,West,270,5.4,15.0,86,0.00,,,0.00,Rainwise IP-100,2013-08-31 08:07:00,
2013-08-31 04:12:00,74.8,70.0,29.89,WNW,292,7.5,10.0,86,0.00,,,0.00,Rainwise IP-100,2013-08-31 08:12:00,
2013-08-31 04:17:00,74.8,71.0,29.89,West,270,5.1,11.0,87,0.00,,,0.00,Rainwise IP-100,2013-08-31 08:17:00,
2013-08-31 04:22:00,74.8,71.0,29.89,WSW,247,4.9,11.0,87,0.00,,,0.00,Rainwise IP-100,2013-08-31 08:22:00,
2013-08-31 04:27:00,74.8,71.0,29.89,SW,225,3.0,10.0,87,0.00,,,0.00,Rainwise IP-100,2013-08-31 08:27:00,
2013-08-31 04:33:00,74.7,71.0,29.89,SW,225,3.7,11.0,87,0.00,,,0.00,Rainwise IP-100,2013-08-31 08:33:00,
2013-08-31 04:38:00,74.6,71.0,29.90,WSW,247,4.2,9.0,87,0.00,,,0.00,Rainwise IP-100,2013-08-31 08:38:00,
2013-08-31 04:43:00,74.6,71.0,29.89,SSW,202,4.7,9.0,87,0.00,,,0.00,Rainwise IP-100,2013-08-31 08:43:00,
2013-08-31 04:48:00,74.5,71.0,29.90,WSW,247,4.7,9.0,87,0.00,,,0.00,Rainwise IP-100,2013-08-31 08:48:00,
2013-08-31 04:53:00,74.5,71.0,29.89,WSW,247,6.8,12.0,87,0.00,,,0.00,Rainwise IP-100,2013-08-31 08:53:00,
2013-08-31 04:58:00,74.5,71.0,29.90,SSW,202,9.8,15.0,87,0.00,,,0.00,Rainwise IP-100,2013-08-31 08:58:00,
2013-08-31 05:03:00,74.4,70.0,29.89,SW,225,10.5,11.0,87,0.00,,,0.00,Rainwise IP-100,2013-08-31 09:03:00,
2013-08-31 05:09:00,74.4,70.0,29.90,West,270,6.5,12.0,87,0.00,,,0.00,Rainwise IP-100,2013-08-31 09:09:00,
2013-08-31 05:14:00,74.3,70.0,29.90,West,270,4.7,15.0,87,0.00,,,0.00,Rainwise IP-100,2013-08-31 09:14:00,
2013-08-31 05:19:00,74.3,70.0,29.90,West,270,3.3,16.0,87,0.00,,,0.00,Rainwise IP-100,2013-08-31 09:19:00,
2013-08-31 05:24:00,74.3,70.0,29.90,WSW,247,4.4,13.0,87,0.00,,,0.00,Rainwise IP-100,2013-08-31 09:24:00,
2013-08-31 05:29:00,74.2,71.0,29.90,WSW,247,7.7,16.0,88,0.00,,,0.00,Rainwise IP-100,2013-08-31 09:29:00,
2013-08-31 05:34:00,74.1,70.0,29.90,SSW,202,6.8,14.0,88,0.00,,,0.00,Rainwise IP-100,2013-08-31 09:34:00,
2013-08-31 05:39:00,74.1,70.0,29.90,WSW,247,5.4,11.0,88,0.00,,,0.00,Rainwise IP-100,2013-08-31 09:39:00,
2013-08-31 05:44:00,74.0,70.0,29.90,WSW,247,11.4,11.4,88,0.00,,,0.00,Rainwise IP-100,2013-08-31 09:44:00,
2013-08-31 05:50:00,74.0,70.0,29.90,SW,225,11.9,14.0,88,0.00,,,0.00,Rainwise IP-100,2013-08-31 09:50:00,
2013-08-31 05:55:00,74.0,70.0,29.90,WSW,247,4.2,15.0,88,0.00,,,0.00,Rainwise IP-100,2013-08-31 09:55:00,
2013-08-31 06:00:00,74.0,70.0,29.90,WSW,247,7.2,9.0,88,0.00,,,0.00,Rainwise IP-100,2013-08-31 10:00:00,
2013-08-31 06:05:00,73.9,70.0,29.90,SSW,202,12.4,15.0,88,0.00,,,0.00,Rainwise IP-100,2013-08-31 10:05:00,
2013-08-31 06:10:00,73.9,70.0,29.90,WSW,247,8.6,17.0,88,0.00,,,0.00,Rainwise IP-100,2013-08-31 10:10:00,
2013-08-31 06:15:00,74.0,70.0,29.90,WSW,247,8.2,11.0,88,0.00,,,0.00,Rainwise IP-100,2013-08-31 10:15:00,
2013-08-31 06:20:00,74.0,70.0,29.91,West,270,4.2,15.0,88,0.00,,,0.00,Rainwise IP-100,2013-08-31 10:20:00,
2013-08-31 06:26:00,74.0,70.0,29.90,WSW,247,7.7,12.0,88,0.00,,,0.00,Rainwise IP-100,2013-08-31 10:26:00,
2013-08-31 06:31:00,73.9,70.0,29.90,SW,225,7.2,13.0,88,0.00,,,0.00,Rainwise IP-100,2013-08-31 10:31:00,
2013-08-31 06:36:00,73.9,70.0,29.90,WSW,247,4.9,11.0,88,0.00,,,0.00,Rainwise IP-100,2013-08-31 10:36:00,
2013-08-31 06:41:00,73.9,70.0,29.89,South,180,5.8,11.0,88,0.00,,,0.00,Rainwise IP-100,2013-08-31 10:41:00,
2013-08-31 06:46:00,73.8,70.0,29.90,SW,225,10.5,12.0,89,0.00,,,0.00,Rainwise IP-100,2013-08-31 10:46:00,
2013-08-31 06:51:00,73.8,70.0,29.89,SSW,202,5.6,13.0,89,0.00,,,0.00,Rainwise IP-100,2013-08-31 10:51:00,
2013-08-31 06:56:00,73.7,70.0,29.90,WSW,247,4.2,14.0,89,0.00,,,0.00,Rainwise IP-100,2013-08-31 10:56:00,
2013-08-31 07:01:00,73.7,70.0,29.89,SSW,202,9.3,13.0,89,0.00,,,0.00,Rainwise IP-100,2013-08-31 11:01:00,
2013-08-31 07:07:00,73.8,70.0,29.89,SSW,202,6.5,10.0,89,0.00,,,0.00,Rainwise IP-100,2013-08-31 11:07:00,
2013-08-31 07:12:00,73.8,70.0,29.89,WSW,247,7.9,10.0,89,0.00,,,0.00,Rainwise IP-100,2013-08-31 11:12:00,
2013-08-31 07:17:00,73.8,70.0,29.89,WSW,247,4.4,13.0,89,0.00,,,0.00,Rainwise IP-100,2013-08-31 11:17:00,
2013-08-31 07:22:00,73.9,71.0,29.89,WSW,247,6.1,12.0,89,0.00,,,0.00,Rainwise IP-100,2013-08-31 11:22:00,
2013-08-31 07:27:00,74.0,70.0,29.89,SW,225,5.4,11.0,88,0.00,,,0.00,Rainwise IP-100,2013-08-31 11:27:00,
2013-08-31 07:32:00,74.1,70.0,29.89,WSW,247,8.6,10.0,88,0.00,,,0.00,Rainwise IP-100,2013-08-31 11:32:00,
2013-08-31 07:37:00,74.2,71.0,29.89,SW,225,7.7,12.0,88,0.00,,,0.00,Rainwise IP-100,2013-08-31 11:37:00,
2013-08-31 07:43:00,74.3,70.0,29.89,SSW,202,9.8,12.0,87,0.00,,,0.00,Rainwise IP-100,2013-08-31 11:43:00,
2013-08-31 07:48:00,74.3,70.0,29.89,WSW,247,4.9,10.0,87,0.00,,,0.00,Rainwise IP-100,2013-08-31 11:48:00,
2013-08-31 07:53:00,74.3,70.0,29.89,SSW,202,7.2,11.0,87,0.00,,,0.00,Rainwise IP-100,2013-08-31 11:53:00,
2013-08-31 07:58:00,74.4,70.0,29.90,WSW,247,3.5,10.0,87,0.00,,,0.00,Rainwise IP-100,2013-08-31 11:58:00,
2013-08-31 08:03:00,74.6,71.0,29.90,WSW,247,8.6,10.0,87,0.00,,,0.00,Rainwise IP-100,2013-08-31 12:03:00,
2013-08-31 08:08:00,74.8,70.0,29.90,WSW,247,8.6,13.0,86,0.00,,,0.00,Rainwise IP-100,2013-08-31 12:08:00,
2013-08-31 08:13:00,74.8,70.0,29.90,WSW,247,7.0,13.0,86,0.00,,,0.00,Rainwise IP-100,2013-08-31 12:13:00,
2013-08-31 08:18:00,74.8,70.0,29.90,WSW,247,10.3,12.0,86,0.00,,,0.00,Rainwise IP-100,2013-08-31 12:18:00,
2013-08-31 08:24:00,74.9,71.0,29.90,WSW,247,1.6,11.0,86,0.00,,,0.00,Rainwise IP-100,2013-08-31 12:24:00,
2013-08-31 08:29:00,75.0,71.0,29.90,WNW,292,5.8,7.0,86,0.00,,,0.00,Rainwise IP-100,2013-08-31 12:29:00,
2013-08-31 08:34:00,75.1,71.0,29.90,WSW,247,6.8,8.0,86,0.00,,,0.00,Rainwise IP-100,2013-08-31 12:34:00,
2013-08-31 08:39:00,75.2,71.0,29.90,WNW,292,2.1,7.0,86,0.00,,,0.00,Rainwise IP-100,2013-08-31 12:39:00,
2013-08-31 08:44:00,75.2,70.0,29.90,WNW,292,3.0,10.0,85,0.00,,,0.00,Rainwise IP-100,2013-08-31 12:44:00,
2013-08-31 08:49:00,75.3,70.0,29.90,SW,225,10.5,11.0,85,0.00,,,0.00,Rainwise IP-100,2013-08-31 12:49:00,
2013-08-31 08:54:00,75.3,70.0,29.91,West,270,7.9,15.0,85,0.00,,,0.00,Rainwise IP-100,2013-08-31 12:54:00,
2013-08-31 09:00:00,75.3,70.0,29.90,WSW,247,4.2,11.0,85,0.00,,,0.00,Rainwise IP-100,2013-08-31 13:00:00,
2013-08-31 09:05:00,75.4,71.0,29.90,WSW,247,8.6,13.0,85,0.00,,,0.00,Rainwise IP-100,2013-08-31 13:05:00,
2013-08-31 09:10:00,75.5,71.0,29.90,West,270,10.0,13.0,85,0.00,,,0.00,Rainwise IP-100,2013-08-31 13:10:00,
2013-08-31 09:15:00,75.4,71.0,29.91,WSW,247,5.8,12.0,85,0.00,,,0.00,Rainwise IP-100,2013-08-31 13:15:00,
2013-08-31 09:20:00,75.5,71.0,29.90,WNW,292,9.3,14.0,85,0.00,,,0.00,Rainwise IP-100,2013-08-31 13:20:00,
2013-08-31 09:25:00,75.5,71.0,29.91,WSW,247,7.9,14.0,85,0.00,,,0.00,Rainwise IP-100,2013-08-31 13:25:00,
2013-08-31 09:30:00,75.6,71.0,29.91,West,270,11.0,13.0,85,0.00,,,0.00,Rainwise IP-100,2013-08-31 13:30:00,
2013-08-31 09:35:00,75.7,70.0,29.91,WSW,247,6.1,13.0,84,0.00,,,0.00,Rainwise IP-100,2013-08-31 13:35:00,
2013-08-31 09:41:00,75.9,71.0,29.91,SSW,202,6.5,13.0,84,0.00,,,0.00,Rainwise IP-100,2013-08-31 13:41:00,
2013-08-31 09:46:00,76.1,71.0,29.91,WSW,247,3.5,10.0,84,0.00,,,0.00,Rainwise IP-100,2013-08-31 13:46:00,
2013-08-31 09:51:00,76.2,71.0,29.91,SSW,202,10.7,11.0,84,0.00,,,0.00,Rainwise IP-100,2013-08-31 13:51:00,
2013-08-31 09:56:00,76.4,71.0,29.91,WSW,247,8.9,11.0,83,0.00,,,0.00,Rainwise IP-100,2013-08-31 13:56:00,
2013-08-31 10:01:00,76.7,71.0,29.91,SSW,202,9.1,14.0,83,0.00,,,0.00,Rainwise IP-100,2013-08-31 14:01:00,
2013-08-31 10:06:00,77.0,71.0,29.91,SSW,202,8.6,14.0,82,0.00,,,0.00,Rainwise IP-100,2013-08-31 14:06:00,
2013-08-31 10:11:00,77.4,71.0,29.91,SSW,202,8.6,13.0,82,0.00,,,0.00,Rainwise IP-100,2013-08-31 14:11:00,
2013-08-31 10:17:00,77.8,71.0,29.90,SSW,202,4.2,13.0,81,0.00,,,0.00,Rainwise IP-100,2013-08-31 14:17:00,
2013-08-31 10:22:00,77.9,72.0,29.90,South,180,13.5,14.0,81,0.00,,,0.00,Rainwise IP-100,2013-08-31 14:22:00,
2013-08-31 10:27:00,77.7,72.0,29.90,SSW,202,6.8,16.0,82,0.00,,,0.00,Rainwise IP-100,2013-08-31 14:27:00,
2013-08-31 10:32:00,77.4,72.0,29.90,South,180,19.8,21.0,83,0.00,,,0.00,Rainwise IP-100,2013-08-31 14:32:00,
2013-08-31 10:37:00,77.1,71.0,29.90,South,180,11.9,21.0,83,0.00,,,0.00,Rainwise IP-100,2013-08-31 14:37:00,
2013-08-31 10:42:00,76.8,71.0,29.90,SSW,202,9.8,18.0,84,0.00,,,0.00,Rainwise IP-100,2013-08-31 14:42:00,
2013-08-31 10:47:00,76.6,71.0,29.90,South,180,17.5,17.5,84,0.00,,,0.00,Rainwise IP-100,2013-08-31 14:47:00,
2013-08-31 10:52:00,76.3,71.0,29.90,South,180,16.6,18.0,85,0.00,,,0.00,Rainwise IP-100,2013-08-31 14:52:00,
2013-08-31 10:58:00,76.1,71.0,29.90,South,180,15.9,20.0,85,0.00,,,0.00,Rainwise IP-100,2013-08-31 14:58:00,
2013-08-31 11:03:00,76.1,71.0,29.90,South,180,11.0,17.0,86,0.00,,,0.00,Rainwise IP-100,2013-08-31 15:03:00,
2013-08-31 11:08:00,76.1,71.0,29.89,SSW,202,12.8,16.0,86,0.00,,,0.00,Rainwise IP-100,2013-08-31 15:08:00,
2013-08-31 11:13:00,76.1,71.0,29.90,South,180,15.2,18.0,85,0.00,,,0.00,Rainwise IP-100,2013-08-31 15:13:00,
2013-08-31 11:18:00,76.3,71.0,29.89,South,180,13.1,17.0,85,0.00,,,0.00,Rainwise IP-100,2013-08-31 15:18:00,
2013-08-31 11:23:00,76.4,71.0,29.89,SSW,202,11.2,17.0,85,0.00,,,0.00,Rainwise IP-100,2013-08-31 15:23:00,
2013-08-31 11:28:00,76.4,71.0,29.89,South,180,13.5,17.0,85,0.00,,,0.00,Rainwise IP-100,2013-08-31 15:28:00,
2013-08-31 11:34:00,76.4,71.0,29.90,South,180,11.7,15.0,85,0.00,,,0.00,Rainwise IP-100,2013-08-31 15:34:00,
2013-08-31 11:39:00,76.5,71.0,29.90,South,180,10.5,17.0,85,0.00,,,0.00,Rainwise IP-100,2013-08-31 15:39:00,
2013-08-31 11:44:00,76.7,71.0,29.89,South,180,12.4,18.0,84,0.00,,,0.00,Rainwise IP-100,2013-08-31 15:44:00,
2013-08-31 11:49:00,76.9,72.0,29.90,South,180,13.8,18.0,84,0.00,,,0.00,Rainwise IP-100,2013-08-31 15:49:00,
2013-08-31 11:54:00,76.9,72.0,29.89,South,180,9.1,14.0,84,0.00,,,0.00,Rainwise IP-100,2013-08-31 15:54:00,
2013-08-31 11:59:00,76.8,71.0,29.89,South,180,9.3,14.0,84,0.00,,,0.00,Rainwise IP-100,2013-08-31 15:59:00,
2013-08-31 12:04:00,76.7,71.0,29.88,South,180,10.7,14.0,84,0.00,,,0.00,Rainwise IP-100,2013-08-31 16:04:00,
2013-08-31 12:09:00,76.6,71.0,29.89,South,180,11.4,16.0,85,0.00,,,0.00,Rainwise IP-100,2013-08-31 16:09:00,
2013-08-31 12:15:00,76.8,72.0,29.89,South,180,14.9,14.9,85,0.00,,,0.00,Rainwise IP-100,2013-08-31 16:15:00,
2013-08-31 12:20:00,77.1,72.0,29.89,SSW,202,10.0,17.0,84,0.00,,,0.00,Rainwise IP-100,2013-08-31 16:20:00,
2013-08-31 12:25:00,77.6,72.0,29.89,SSW,202,8.9,14.0,83,0.00,,,0.00,Rainwise IP-100,2013-08-31 16:25:00,
2013-08-31 12:30:00,78.0,72.0,29.89,SSW,202,7.7,15.0,82,0.00,,,0.00,Rainwise IP-100,2013-08-31 16:30:00,
2013-08-31 12:35:00,78.3,72.0,29.89,South,180,13.8,14.0,81,0.00,,,0.00,Rainwise IP-100,2013-08-31 16:35:00,
2013-08-31 12:40:00,78.4,72.0,29.88,South,180,11.0,15.0,81,0.00,,,0.00,Rainwise IP-100,2013-08-31 16:40:00,
2013-08-31 12:45:00,78.5,72.0,29.88,South,180,10.0,14.0,81,0.00,,,0.00,Rainwise IP-100,2013-08-31 16:45:00,
2013-08-31 12:51:00,78.4,72.0,29.88,SSE,157,11.0,14.0,81,0.00,,,0.00,Rainwise IP-100,2013-08-31 16:51:00,
2013-08-31 12:56:00,78.3,72.0,29.88,South,180,13.1,15.0,81,0.00,,,0.00,Rainwise IP-100,2013-08-31 16:56:00,
2013-08-31 13:01:00,78.4,72.0,29.88,South,180,11.2,16.0,81,0.00,,,0.00,Rainwise IP-100,2013-08-31 17:01:00,
2013-08-31 13:06:00,78.4,72.0,29.89,SSW,202,9.6,14.0,81,0.00,,,0.00,Rainwise IP-100,2013-08-31 17:06:00,
2013-08-31 13:11:00,78.3,72.0,29.88,South,180,10.0,14.0,81,0.00,,,0.00,Rainwise IP-100,2013-08-31 17:11:00,
2013-08-31 13:16:00,78.1,72.0,29.88,SSW,202,10.0,13.0,82,0.00,,,0.00,Rainwise IP-100,2013-08-31 17:16:00,
2013-08-31 13:21:00,78.0,72.0,29.88,South,180,11.7,13.0,83,0.00,,,0.00,Rainwise IP-100,2013-08-31 17:21:00,
2013-08-31 13:26:00,77.9,72.0,29.88,South,180,10.0,12.0,83,0.00,,,0.00,Rainwise IP-100,2013-08-31 17:26:00,
2013-08-31 13:32:00,77.8,72.0,29.88,South,180,9.1,12.0,84,0.00,,,0.00,Rainwise IP-100,2013-08-31 17:32:00,
2013-08-31 13:37:00,77.8,72.0,29.88,South,180,11.2,13.0,84,0.00,,,0.00,Rainwise IP-100,2013-08-31 17:37:00,
2013-08-31 13:42:00,77.9,72.0,29.88,SSW,202,9.6,11.0,84,0.00,,,0.00,Rainwise IP-100,2013-08-31 17:42:00,
2013-08-31 13:47:00,77.9,72.0,29.88,South,180,7.7,11.0,84,0.00,,,0.00,Rainwise IP-100,2013-08-31 17:47:00,
2013-08-31 13:52:00,77.9,72.0,29.88,South,180,10.0,12.0,84,0.00,,,0.00,Rainwise IP-100,2013-08-31 17:52:00,
2013-08-31 13:57:00,77.9,72.0,29.88,South,180,9.1,11.0,83,0.00,,,0.00,Rainwise IP-100,2013-08-31 17:57:00,
2013-08-31 14:02:00,78.1,72.0,29.88,South,180,8.9,11.0,83,0.00,,,0.00,Rainwise IP-100,2013-08-31 18:02:00,
2013-08-31 14:08:00,78.3,72.0,29.88,South,180,7.5,12.0,82,0.00,,,0.00,Rainwise IP-100,2013-08-31 18:08:00,
2013-08-31 14:13:00,78.6,72.0,29.88,South,180,6.8,10.0,82,0.00,,,0.00,Rainwise IP-100,2013-08-31 18:13:00,
2013-08-31 14:18:00,78.8,72.0,29.87,South,180,8.2,10.0,82,0.00,,,0.00,Rainwise IP-100,2013-08-31 18:18:00,
2013-08-31 14:23:00,78.9,73.0,29.87,SSE,157,6.8,11.0,82,0.00,,,0.00,Rainwise IP-100,2013-08-31 18:23:00,
2013-08-31 14:28:00,79.0,72.0,29.87,SSE,157,10.7,13.0,81,0.00,,,0.00,Rainwise IP-100,2013-08-31 18:28:00,
2013-08-31 14:33:00,79.0,73.0,29.87,SSE,157,7.5,11.0,82,0.00,,,0.00,Rainwise IP-100,2013-08-31 18:33:00,
2013-08-31 14:38:00,78.8,72.0,29.86,South,180,12.6,12.6,82,0.00,,,0.00,Rainwise IP-100,2013-08-31 18:38:00,
2013-08-31 14:43:00,78.7,73.0,29.87,SSE,157,8.6,12.0,83,0.00,,,0.00,Rainwise IP-100,2013-08-31 18:43:00,
2013-08-31 14:49:00,78.8,72.0,29.86,South,180,11.4,13.0,82,0.00,,,0.00,Rainwise IP-100,2013-08-31 18:49:00,
2013-08-31 14:54:00,79.0,73.0,29.87,SSW,202,6.3,12.0,82,0.00,,,0.00,Rainwise IP-100,2013-08-31 18:54:00,
2013-08-31 14:59:00,79.4,73.0,29.86,South,180,7.7,13.0,81,0.00,,,0.00,Rainwise IP-100,2013-08-31 18:59:00,
2013-08-31 15:04:00,79.6,73.0,29.86,South,180,7.9,10.0,80,0.00,,,0.00,Rainwise IP-100,2013-08-31 19:04:00,
2013-08-31 15:09:00,79.8,72.0,29.86,South,180,8.4,10.0,79,0.00,,,0.00,Rainwise IP-100,2013-08-31 19:09:00,
2013-08-31 15:14:00,80.1,72.0,29.86,South,180,8.6,10.0,79,0.00,,,0.00,Rainwise IP-100,2013-08-31 19:14:00,
2013-08-31 15:19:00,80.2,73.0,29.86,South,180,7.7,10.0,79,0.00,,,0.00,Rainwise IP-100,2013-08-31 19:19:00,
2013-08-31 15:25:00,80.2,73.0,29.86,South,180,7.9,10.0,79,0.00,,,0.00,Rainwise IP-100,2013-08-31 19:25:00,
2013-08-31 15:30:00,80.5,73.0,29.86,South,180,8.9,11.0,78,0.00,,,0.00,Rainwise IP-100,2013-08-31 19:30:00,
2013-08-31 15:35:00,80.7,73.0,29.86,South,180,10.0,12.0,78,0.00,,,0.00,Rainwise IP-100,2013-08-31 19:35:00,
2013-08-31 15:40:00,80.8,73.0,29.85,South,180,10.5,14.0,77,0.00,,,0.00,Rainwise IP-100,2013-08-31 19:40:00,
2013-08-31 15:45:00,81.0,73.0,29.85,South,180,8.6,12.0,77,0.00,,,0.00,Rainwise IP-100,2013-08-31 19:45:00,
2013-08-31 15:50:00,81.1,73.0,29.85,South,180,9.6,12.0,77,0.00,,,0.00,Rainwise IP-100,2013-08-31 19:50:00,
2013-08-31 15:55:00,81.1,73.0,29.85,South,180,10.3,12.0,78,0.00,,,0.00,Rainwise IP-100,2013-08-31 19:55:00,
2013-08-31 16:00:00,81.0,73.0,29.85,South,180,10.3,12.0,78,0.00,,,0.00,Rainwise IP-100,2013-08-31 20:00:00,
2013-08-31 16:06:00,80.9,74.0,29.85,South,180,10.0,14.0,79,0.00,,,0.00,Rainwise IP-100,2013-08-31 20:06:00,
2013-08-31 16:11:00,81.2,73.0,29.84,SSE,157,9.6,14.0,77,0.00,,,0.00,Rainwise IP-100,2013-08-31 20:11:00,
2013-08-31 16:16:00,81.8,73.0,29.84,South,180,9.3,11.0,76,0.00,,,0.00,Rainwise IP-100,2013-08-31 20:16:00,
2013-08-31 16:21:00,82.3,73.0,29.84,South,180,9.3,12.0,75,0.00,,,0.00,Rainwise IP-100,2013-08-31 20:21:00,
2013-08-31 16:26:00,82.3,73.0,29.83,SSE,157,8.2,11.0,75,0.00,,,0.00,Rainwise IP-100,2013-08-31 20:26:00,
2013-08-31 16:31:00,81.9,73.0,29.84,South,180,8.4,10.0,76,0.00,,,0.00,Rainwise IP-100,2013-08-31 20:31:00,
2013-08-31 16:36:00,81.7,74.0,29.84,South,180,10.0,12.0,78,0.00,,,0.00,Rainwise IP-100,2013-08-31 20:36:00,
2013-08-31 16:42:00,81.8,73.0,29.84,South,180,11.0,17.0,77,0.00,,,0.00,Rainwise IP-100,2013-08-31 20:42:00,
2013-08-31 16:47:00,81.9,74.0,29.84,SSE,157,9.6,14.0,77,0.00,,,0.00,Rainwise IP-100,2013-08-31 20:47:00,
2013-08-31 16:52:00,81.7,74.0,29.84,South,180,8.9,11.0,78,0.00,,,0.00,Rainwise IP-100,2013-08-31 20:52:00,
2013-08-31 16:57:00,81.5,74.0,29.84,South,180,10.3,11.0,78,0.00,,,0.00,Rainwise IP-100,2013-08-31 20:57:00,
2013-08-31 17:02:00,81.5,74.0,29.84,SSE,157,10.5,13.0,78,0.00,,,0.00,Rainwise IP-100,2013-08-31 21:02:00,
2013-08-31 17:07:00,81.7,74.0,29.84,South,180,11.9,15.0,78,0.00,,,0.00,Rainwise IP-100,2013-08-31 21:07:00,
2013-08-31 17:12:00,81.8,74.0,29.84,South,180,9.6,13.0,78,0.00,,,0.00,Rainwise IP-100,2013-08-31 21:12:00,
2013-08-31 17:17:00,81.8,74.0,29.84,South,180,13.1,13.1,78,0.00,,,0.00,Rainwise IP-100,2013-08-31 21:17:00,
2013-08-31 17:23:00,81.6,74.0,29.84,South,180,12.4,13.0,78,0.00,,,0.00,Rainwise IP-100,2013-08-31 21:23:00,
2013-08-31 17:28:00,81.5,74.0,29.84,South,180,9.1,14.0,78,0.00,,,0.00,Rainwise IP-100,2013-08-31 21:28:00,
2013-08-31 17:33:00,81.3,74.0,29.84,South,180,7.7,10.0,79,0.00,,,0.00,Rainwise IP-100,2013-08-31 21:33:00,
2013-08-31 17:38:00,80.9,74.0,29.85,South,180,10.0,10.0,79,0.00,,,0.00,Rainwise IP-100,2013-08-31 21:38:00,
2013-08-31 17:43:00,80.9,74.0,29.84,South,180,6.5,10.0,80,0.00,,,0.00,Rainwise IP-100,2013-08-31 21:43:00,
2013-08-31 17:48:00,80.9,74.0,29.84,South,180,8.2,10.0,80,0.00,,,0.00,Rainwise IP-100,2013-08-31 21:48:00,
2013-08-31 17:53:00,80.8,74.0,29.84,SSW,202,10.5,10.5,80,0.00,,,0.00,Rainwise IP-100,2013-08-31 21:53:00,
2013-08-31 17:59:00,80.6,73.0,29.84,South,180,10.7,11.0,80,0.00,,,0.00,Rainwise IP-100,2013-08-31 21:59:00,
2013-08-31 18:04:00,80.5,74.0,29.84,South,180,9.3,11.0,81,0.00,,,0.00,Rainwise IP-100,2013-08-31 22:04:00,
2013-08-31 18:09:00,80.4,74.0,29.84,South,180,6.1,10.0,81,0.00,,,0.00,Rainwise IP-100,2013-08-31 22:09:00,
2013-08-31 18:14:00,80.3,73.0,29.84,SSW,202,5.8,9.0,81,0.00,,,0.00,Rainwise IP-100,2013-08-31 22:14:00,
2013-08-31 18:19:00,80.3,73.0,29.84,South,180,1.6,8.0,81,0.00,,,0.00,Rainwise IP-100,2013-08-31 22:19:00,
2013-08-31 18:24:00,80.3,73.0,29.84,SSW,202,7.0,7.0,81,0.00,,,0.00,Rainwise IP-100,2013-08-31 22:24:00,
2013-08-31 18:29:00,80.3,73.0,29.84,South,180,6.1,8.0,81,0.00,,,0.00,Rainwise IP-100,2013-08-31 22:29:00,
2013-08-31 18:34:00,80.1,73.0,29.84,South,180,6.1,7.0,81,0.00,,,0.00,Rainwise IP-100,2013-08-31 22:34:00,
2013-08-31 18:40:00,79.5,74.0,29.84,South,180,5.6,7.0,83,0.00,,,0.00,Rainwise IP-100,2013-08-31 22:40:00,
2013-08-31 18:45:00,79.1,73.0,29.84,South,180,4.7,6.0,84,0.00,,,0.00,Rainwise IP-100,2013-08-31 22:45:00,
2013-08-31 18:50:00,78.8,73.0,29.85,SSE,157,4.7,5.0,85,0.00,,,0.00,Rainwise IP-100,2013-08-31 22:50:00,
2013-08-31 18:55:00,78.7,73.0,29.84,SSE,157,2.6,5.0,85,0.00,,,0.00,Rainwise IP-100,2013-08-31 22:55:00,
2013-08-31 19:00:00,78.6,74.0,29.85,SSE,157,0.0,4.0,86,0.00,,,0.00,Rainwise IP-100,2013-08-31 23:00:00,
2013-08-31 19:05:00,78.7,74.0,29.85,SSE,157,0.0,1.0,86,0.00,,,0.00,Rainwise IP-100,2013-08-31 23:05:00,
2013-08-31 19:10:00,78.7,74.0,29.85,SSW,202,1.6,1.6,86,0.00,,,0.00,Rainwise IP-100,2013-08-31 23:10:00,
2013-08-31 19:16:00,78.7,74.0,29.85,SSW,202,2.6,4.0,86,0.00,,,0.00,Rainwise IP-100,2013-08-31 23:16:00,
2013-08-31 19:21:00,78.7,74.0,29.85,South,180,3.3,5.0,86,0.00,,,0.00,Rainwise IP-100,2013-08-31 23:21:00,
2013-08-31 19:26:00,78.6,74.0,29.85,WSW,247,2.8,4.0,86,0.00,,,0.00,Rainwise IP-100,2013-08-31 23:26:00,
2013-08-31 19:31:00,78.6,74.0,29.85,South,180,2.3,4.0,86,0.00,,,0.00,Rainwise IP-100,2013-08-31 23:31:00,
2013-08-31 19:36:00,78.4,73.0,29.85,SSE,157,4.2,4.2,86,0.00,,,0.00,Rainwise IP-100,2013-08-31 23:36:00,
2013-08-31 19:41:00,78.1,73.0,29.85,SSE,157,4.2,4.2,87,0.00,,,0.00,Rainwise IP-100,2013-08-31 23:41:00,
2013-08-31 19:46:00,77.9,74.0,29.85,SSE,157,4.9,5.0,88,0.00,,,0.00,Rainwise IP-100,2013-08-31 23:46:00,
2013-08-31 19:51:00,77.8,73.0,29.85,SSE,157,2.8,5.0,88,0.00,,,0.00,Rainwise IP-100,2013-08-31 23:51:00,
2013-08-31 19:57:00,77.8,73.0,29.85,South,180,4.7,5.0,88,0.00,,,0.00,Rainwise IP-100,2013-08-31 23:57:00,
2013-08-31 20:02:00,77.7,73.0,29.85,South,180,4.4,5.0,88,0.00,,,0.00,Rainwise IP-100,2013-09-01 00:02:00,
2013-08-31 20:07:00,77.5,74.0,29.85,SSW,202,5.1,6.0,89,0.00,,,0.00,Rainwise IP-100,2013-09-01 00:07:00,
2013-08-31 20:12:00,77.5,74.0,29.85,SSE,157,5.8,7.0,89,0.00,,,0.00,Rainwise IP-100,2013-09-01 00:12:00,
2013-08-31 20:17:00,77.5,74.0,29.85,SSE,157,9.6,9.6,89,0.00,,,0.00,Rainwise IP-100,2013-09-01 00:17:00,
2013-08-31 20:22:00,77.4,74.0,29.84,South,180,9.1,13.0,89,0.00,,,0.00,Rainwise IP-100,2013-09-01 00:22:00,
2013-08-31 20:27:00,77.4,74.0,29.85,SSE,157,6.3,10.0,89,0.00,,,0.00,Rainwise IP-100,2013-09-01 00:27:00,
2013-08-31 20:33:00,77.1,74.0,29.85,SSW,202,2.3,7.0,90,0.00,,,0.00,Rainwise IP-100,2013-09-01 00:33:00,
2013-08-31 20:38:00,76.7,74.0,29.85,WSW,247,1.4,4.0,91,0.00,,,0.00,Rainwise IP-100,2013-09-01 00:38:00,
2013-08-31 20:43:00,76.6,73.0,29.85,SSW,202,4.2,6.0,91,0.00,,,0.00,Rainwise IP-100,2013-09-01 00:43:00,
2013-08-31 20:48:00,76.7,74.0,29.85,SSW,202,5.1,7.0,91,0.00,,,0.00,Rainwise IP-100,2013-09-01 00:48:00,
2013-08-31 20:53:00,76.8,73.0,29.85,SW,225,4.0,8.0,90,0.00,,,0.00,Rainwise IP-100,2013-09-01 00:53:00,
2013-08-31 20:58:00,76.9,74.0,29.86,SSW,202,5.1,10.0,90,0.00,,,0.00,Rainwise IP-100,2013-09-01 00:58:00,
2013-08-31 21:03:00,77.0,74.0,29.86,South,180,8.9,9.0,90,0.00,,,0.00,Rainwise IP-100,2013-09-01 01:03:00,
2013-08-31 21:08:00,77.0,73.0,29.85,WSW,247,3.7,10.0,89,0.00,,,0.00,Rainwise IP-100,2013-09-01 01:08:00,
2013-08-31 21:14:00,77.2,74.0,29.87,West,270,1.4,9.0,89,0.00,,,0.00,Rainwise IP-100,2013-09-01 01:14:00,
2013-08-31 21:19:00,77.2,74.0,29.87,SSW,202,7.5,7.5,89,0.00,,,0.00,Rainwise IP-100,2013-09-01 01:19:00,
2013-08-31 21:24:00,77.1,73.0,29.87,SW,225,4.7,10.0,89,0.00,,,0.00,Rainwise IP-100,2013-09-01 01:24:00,
2013-08-31 21:29:00,77.1,73.0,29.87,SSW,202,4.7,9.0,89,0.00,,,0.00,Rainwise IP-100,2013-09-01 01:29:00,
2013-08-31 21:34:00,77.1,73.0,29.87,SW,225,9.8,10.0,89,0.00,,,0.00,Rainwise IP-100,2013-09-01 01:34:00,
2013-08-31 21:39:00,77.2,74.0,29.87,SSW,202,7.7,11.0,89,0.00,,,0.00,Rainwise IP-100,2013-09-01 01:39:00,
2013-08-31 21:44:00,77.2,74.0,29.87,SSW,202,8.6,9.0,89,0.00,,,0.00,Rainwise IP-100,2013-09-01 01:44:00,
2013-08-31 21:50:00,77.2,74.0,29.88,SSW,202,4.0,11.0,89,0.00,,,0.00,Rainwise IP-100,2013-09-01 01:50:00,
2013-08-31 21:55:00,77.2,74.0,29.88,SSW,202,8.4,10.0,89,0.00,,,0.00,Rainwise IP-100,2013-09-01 01:55:00,
2013-08-31 22:00:00,77.1,73.0,29.88,SSW,202,6.1,10.0,89,0.00,,,0.00,Rainwise IP-100,2013-09-01 02:00:00,
2013-08-31 22:05:00,77.1,73.0,29.88,SSW,202,6.8,10.0,89,0.00,,,0.00,Rainwise IP-100,2013-09-01 02:05:00,
2013-08-31 22:10:00,77.1,73.0,29.88,SSW,202,6.8,12.0,89,0.00,,,0.00,Rainwise IP-100,2013-09-01 02:10:00,
2013-08-31 22:15:00,77.0,73.0,29.88,SSW,202,4.2,8.0,89,0.00,,,0.00,Rainwise IP-100,2013-09-01 02:15:00,
2013-08-31 22:20:00,76.9,73.0,29.89,South,180,6.5,7.0,89,0.00,,,0.00,Rainwise IP-100,2013-09-01 02:20:00,
2013-08-31 22:25:00,76.8,73.0,29.88,SSE,157,7.9,10.0,89,0.00,,,0.00,Rainwise IP-100,2013-09-01 02:25:00,
2013-08-31 22:31:00,76.7,73.0,29.88,SSE,157,4.2,9.0,90,0.00,,,0.00,Rainwise IP-100,2013-09-01 02:31:00,
2013-08-31 22:36:00,76.6,73.0,29.89,SW,225,5.4,7.0,90,0.00,,,0.00,Rainwise IP-100,2013-09-01 02:36:00,
2013-08-31 22:41:00,76.5,73.0,29.89,SSE,157,5.4,8.0,90,0.00,,,0.00,Rainwise IP-100,2013-09-01 02:41:00,
2013-08-31 22:46:00,76.4,73.0,29.89,South,180,5.1,9.0,90,0.00,,,0.00,Rainwise IP-100,2013-09-01 02:46:00,
2013-08-31 22:51:00,76.3,73.0,29.89,SSW,202,6.3,8.0,90,0.00,,,0.00,Rainwise IP-100,2013-09-01 02:51:00,
2013-08-31 22:56:00,76.2,73.0,29.88,SSW,202,2.3,7.0,91,0.00,,,0.00,Rainwise IP-100,2013-09-01 02:56:00,
2013-08-31 23:01:00,76.1,73.0,29.89,SSW,202,4.0,5.0,91,0.00,,,0.00,Rainwise IP-100,2013-09-01 03:01:00,
2013-08-31 23:07:00,76.1,73.0,29.89,SSW,202,4.2,6.0,91,0.00,,,0.00,Rainwise IP-100,2013-09-01 03:07:00,
2013-08-31 23:12:00,76.1,73.0,29.88,South,180,4.4,6.0,91,0.00,,,0.00,Rainwise IP-100,2013-09-01 03:12:00,
2013-08-31 23:17:00,76.1,73.0,29.88,SSE,157,3.7,7.0,91,0.00,,,0.00,Rainwise IP-100,2013-09-01 03:17:00,
2013-08-31 23:22:00,76.1,73.0,29.88,South,180,8.6,9.0,91,0.00,,,0.00,Rainwise IP-100,2013-09-01 03:22:00,
2013-08-31 23:27:00,76.1,73.0,29.88,SSW,202,3.7,9.0,91,0.00,,,0.00,Rainwise IP-100,2013-09-01 03:27:00,
2013-08-31 23:32:00,76.1,73.0,29.88,SSW,202,6.5,7.0,91,0.00,,,0.00,Rainwise IP-100,2013-09-01 03:32:00,
2013-08-31 23:37:00,76.0,73.0,29.88,South,180,2.8,8.0,91,0.00,,,0.00,Rainwise IP-100,2013-09-01 03:37:00,
2013-08-31 23:42:00,76.0,73.0,29.88,SSW,202,2.3,6.0,91,0.00,,,0.00,Rainwise IP-100,2013-09-01 03:42:00,
2013-08-31 23:48:00,75.9,73.0,29.88,SW,225,4.7,4.7,91,0.00,,,0.00,Rainwise IP-100,2013-09-01 03:48:00,
2013-08-31 23:53:00,75.9,73.0,29.88,SSW,202,4.2,5.0,91,0.00,,,0.00,Rainwise IP-100,2013-09-01 03:53:00,
2013-08-31 23:58:00,75.8,72.0,29.88,SSW,202,3.5,5.0,91,0.00,,,0.00,Rainwise IP-100,2013-09-01 03:58:00,